Location: Podia
(1.5569°N, 32.3469°E)
Time: 12:40:18
(UTC+00:00)

Transit 4A - Visible Passes

Search period start: 26 September 2020 00:00
Search period end: 06 October 2020 00:00
Orbit: 863 x 982 km, 66.8° (Epoch: 25 September)

Date Brightness Start Highest point End Pass type
(mag) Time Alt. Az. Time Alt. Az. Time Alt. Az.
29 Sep 9.7 17:44:04 10° S 17:45:21 17° S 17:45:21 17° S visible
30 Sep 9.2 17:53:10 10° SSW 17:55:49 29° SSW 17:55:49 29° SSW visible
01 Oct 9.5 16:20:01 10° SE 16:22:19 12° ESE 16:22:52 12° ESE visible
01 Oct 9.0 18:02:39 10° SW 18:06:30 37° WSW 18:06:30 37° WSW visible
02 Oct 8.9 16:27:06 10° SSE 16:31:35 22° ESE 16:33:45 18° E visible
02 Oct 9.5 18:12:37 10° SW 18:17:24 29° WNW 18:17:24 29° WNW visible
03 Oct 8.3 16:35:24 10° S 16:40:50 39° ESE 16:44:53 17° NE visible
03 Oct 10.2 18:23:20 10° WSW 18:26:58 17° WNW 18:28:33 15° NW visible
04 Oct 7.7 16:44:14 10° SSW 16:50:05 68° ESE 16:56:06 10° NNE visible
05 Oct 8.1 16:53:27 10° SSW 16:59:20 71° WNW 17:05:23 10° NNE visible
